Location: Les Moreaux
(47.2278°N, 1.4966°E)
Time: 06:36:58
(UTC+00:00)

Cosmos 1975 - Pass Details

Date: 19 May 2025
Orbit: 487 x 506 km, 82.5° (Epoch: 18 June)

Event Time Altitude Azimuth Distance (km) Brightness Sun altitude
Rises 22:45:33 0° 351° (N) 2,574 7.8 -21.2°
Reaches altitude 10° 22:47:41 10° 352° (N) 1,686 6.4 -21.3°
Enters shadow 22:51:21 82° 72° (ENE) 499 2.5 -21.5°
